Weather History for Gillette, WY

Change the Weather History Date:

Monday, December 10, 2012

  Actual Average Record
Temperature  
Mean Temperature 20 °F 24 °F  
Max Temperature 28 °F 35 °F 66 °F (1981)
Min Temperature 12 °F 13 °F -20 °F (1932)
Degree Days  
Heating Degree Days 45 41  
Month to date heating degree days 336 402  
Since 1 July heating degree days 1952 2277  
Cooling Degree Days 0 0  
Month to date cooling degree days 0 0  
Year to date cooling degree days 795 502  
Moisture  
Dew Point 18 °F    
Average Humidity 74    
Maximum Humidity 92    
Minimum Humidity 56    
Precipitation  
Precipitation 0.03 in 0.01 in 0.24 in (1970)
Month to date precipitation 0.16 0.17  
Year to date precipitation 9.17 13.66  
Sea Level Pressure  
Sea Level Pressure 29.91 in    
Wind  
Wind Speed 13 mph (West)    
Max Wind Speed 26 mph    
Max Gust Speed 35 mph    
Visibility 7 miles    
Events Fog , Snow    
T = Trace of Precipitation, MM = Missing Value Source: NWS Daily Summary

Daily Weather History Graph

Daily Weather History Graph

Search for Another Location

Airport:

Trip Planner

Search our weather history database for the weather conditions in past years. The results will help you decide how hot, cold, wet, or windy it might be!

Date:

Astronomy

Dec. 10, 2012 Rise Set
Actual Time 7:27 AM MST 4:22 PM MST
Civil Twilight 6:54 AM MST 4:56 PM MST
Nautical Twilight 6:17 AM MST 5:32 PM MST
Astronomical Twilight 5:42 AM MST 6:07 PM MST
Moon 4:09 AM MST (12/10) 2:17 PM MST (12/10)
Length of Visible Light 10h 01m
Length of Day
8h 55m
Waning Crescent, 10% of the Moon is Illuminated
Dec 10
Waning Crescent
Dec 13
New
Dec 19
First Quarter
Dec 28
Full
Jan 4
Last Quarter

Hourly Weather History & Observations

Time (MST) Temp. Windchill Dew Point Humidity Pressure Visibility Wind Dir Wind Speed Gust Speed Precip Events Conditions
12:53 AM 17.1 °F - 5.0 °F 59% 30.01 in 10.0 mi Calm Calm - N/A   Overcast
1:53 AM 17.1 °F - 9.0 °F 71% 29.98 in 10.0 mi Calm Calm - N/A   Overcast
2:53 AM 19.9 °F 8.6 °F 7.0 °F 57% 29.96 in 10.0 mi SW 10.4 mph - N/A   Overcast
3:53 AM 21.0 °F 9.3 °F 9.0 °F 60% 29.94 in 10.0 mi SW 11.5 mph 20.7 mph 0.01 in   Overcast
4:53 AM 23.0 °F 11.7 °F 10.0 °F 58% 29.96 in 10.0 mi SW 11.5 mph - N/A   Overcast
5:53 AM 21.9 °F 10.4 °F 12.0 °F 66% 29.96 in 10.0 mi WSW 11.5 mph - 0.00 in   Overcast
6:43 AM 21.2 °F 8.9 °F 14.0 °F 74% 29.80 in 6.0 mi West 12.7 mph - 0.00 in Snow Light Snow
6:53 AM 21.0 °F 9.3 °F 14.0 °F 74% 29.97 in 5.0 mi West 11.5 mph - 0.00 in Snow Light Snow
7:05 AM 21.2 °F 8.3 °F 15.8 °F 80% 29.80 in 2.0 mi West 13.8 mph - 0.00 in Snow Light Snow
7:40 AM 21.2 °F 7.8 °F 17.6 °F 86% 29.79 in 1.5 mi West 15.0 mph - 0.00 in Snow Light Snow
7:51 AM 21.2 °F 8.3 °F 17.6 °F 86% 29.80 in 2.0 mi West 13.8 mph - 0.01 in Snow Light Snow
7:53 AM 21.0 °F 8.1 °F 18.0 °F 88% 29.96 in 2.5 mi West 13.8 mph - 0.01 in Snow Light Snow
8:03 AM 21.2 °F 8.9 °F 17.6 °F 86% 29.80 in 4.0 mi West 12.7 mph - 0.00 in Snow Light Snow
8:27 AM 21.2 °F 9.5 °F 19.4 °F 93% 29.79 in 2.0 mi West 11.5 mph - 0.00 in Snow Light Snow
8:53 AM 23.0 °F 11.7 °F 19.0 °F 85% 29.97 in 7.0 mi West 11.5 mph - 0.00 in   Overcast
9:53 AM 26.1 °F 15.0 °F 19.9 °F 78% 29.97 in 10.0 mi West 12.7 mph - N/A   Mostly Cloudy
10:53 AM 27.0 °F 15.2 °F 21.0 °F 78% 29.97 in 10.0 mi WNW 15.0 mph - N/A   Mostly Cloudy
11:53 AM 27.0 °F 13.5 °F 21.9 °F 81% 29.97 in 10.0 mi WNW 19.6 mph - 0.00 in   Overcast
12:11 PM 26.6 °F 14.3 °F 23.0 °F 86% 29.81 in 2.5 mi WNW 16.1 mph - 0.00 in Snow Light Snow
12:20 PM 26.6 °F 13.4 °F 21.2 °F 80% 29.81 in 4.0 mi WNW 18.4 mph - 0.00 in   Haze
12:45 PM 26.6 °F 12.7 °F 19.4 °F 74% 29.81 in 10.0 mi NW 20.7 mph 34.5 mph 0.00 in   Overcast
12:53 PM 27.0 °F 12.8 °F 19.9 °F 75% 29.94 in 10.0 mi WNW 21.9 mph 27.6 mph 0.00 in   Overcast
1:19 PM 26.6 °F 12.4 °F 21.2 °F 80% 29.81 in 7.0 mi NW 21.9 mph - 0.00 in Snow Light Snow
1:28 PM 26.6 °F 13.4 °F 21.2 °F 80% 29.82 in 9.0 mi NW 18.4 mph 26.5 mph 0.00 in Snow Light Snow
1:40 PM 26.6 °F 13.1 °F 21.2 °F 80% 29.82 in 9.0 mi NW 19.6 mph - 0.00 in Snow Light Snow
1:53 PM 27.0 °F 13.9 °F 21.0 °F 78% 29.96 in 9.0 mi NW 18.4 mph - 0.00 in   Overcast
2:31 PM 26.6 °F 14.7 °F 21.2 °F 80% 29.83 in 2.5 mi WNW 15.0 mph - 0.00 in Snow Light Snow
2:35 PM 26.6 °F 14.7 °F 21.2 °F 80% 29.83 in 3.0 mi WNW 15.0 mph - 0.00 in Snow Light Snow
2:53 PM 26.1 °F 13.6 °F 21.0 °F 81% 29.97 in 4.0 mi NW 16.1 mph - 0.00 in Snow Light Snow
2:57 PM 26.6 °F 13.4 °F 21.2 °F 80% 29.84 in 1.5 mi NW 18.4 mph - 0.00 in Snow Light Snow
3:03 PM 24.8 °F 13.4 °F 21.2 °F 86% 29.84 in 0.5 mi NW 12.7 mph 23.0 mph 0.00 in Fog , Snow Snow
3:11 PM 24.8 °F 13.4 °F 23.0 °F 93% 29.85 in 1.0 mi WNW 12.7 mph - 0.00 in Snow Light Snow
3:32 PM 24.8 °F 11.9 °F 23.0 °F 93% 29.85 in 0.8 mi NW 16.1 mph 21.9 mph 0.00 in Snow Light Snow
3:40 PM 24.8 °F 11.9 °F 21.2 °F 86% 29.86 in 1.8 mi WNW 16.1 mph - 0.00 in Snow Light Snow
3:42 PM 24.8 °F 11.1 °F 21.2 °F 86% 29.85 in 4.0 mi WNW 18.4 mph - 0.01 in Snow Light Snow
3:53 PM 24.1 °F 11.0 °F 21.0 °F 88% 29.99 in 9.0 mi WNW 16.1 mph - 0.01 in   Mostly Cloudy
4:53 PM 21.9 °F 11.7 °F 19.0 °F 89% 30.00 in 10.0 mi WNW 9.2 mph - N/A   Mostly Cloudy
5:53 PM 23.0 °F 11.1 °F 19.9 °F 88% 30.00 in 10.0 mi WNW 12.7 mph - N/A   Mostly Cloudy
6:53 PM 18.0 °F 6.1 °F 16.0 °F 92% 30.02 in 10.0 mi West 10.4 mph - N/A   Clear
7:53 PM 18.0 °F 4.8 °F 15.1 °F 88% 30.02 in 10.0 mi WSW 12.7 mph - N/A   Clear
8:53 PM 19.9 °F 7.9 °F 15.1 °F 81% 30.00 in 10.0 mi West 11.5 mph - N/A   Clear
9:53 PM 21.0 °F 8.6 °F 15.1 °F 78% 29.99 in 10.0 mi West 12.7 mph - N/A   Mostly Cloudy
10:53 PM 21.0 °F 8.6 °F 14.0 °F 74% 29.99 in 10.0 mi West 12.7 mph - N/A   Mostly Cloudy
11:53 PM 19.9 °F 7.3 °F 12.9 °F 74% 29.99 in 10.0 mi West 12.7 mph - N/A   Scattered Clouds